This is the latest recevied weather packets stored in our database for station/object N7NIP. If no packets are shown the sender has not sent any weather packets the latest 10 day(s).
| Time | Temp. | Humidity | Pressure | Rain* | Wind** | Luminosity | Snow |
|---|---|---|---|---|---|---|---|
| 1778039048 | 12.78° C | 90% | 1029.5 hPa | 0 mm | - | 0 W/m² | - |
| 1778038745 | 12.78° C | 89% | 1029.4 hPa | 0 mm | - | 1 W/m² | - |
| 1778038443 | 12.78° C | 89% | 1029.4 hPa | 0 mm | - | 2 W/m² | - |
| 1778038139 | 12.78° C | 88% | 1029.2 hPa | 0 mm | - | 3 W/m² | - |
| 1778037836 | 13.33° C | 87% | 1029.4 hPa | 0 mm | - | 5 W/m² | - |
| 1778037533 | 13.33° C | 86% | 1029.2 hPa | 0 mm | - | 7 W/m² | - |
| 1778037230 | 13.89° C | 86% | 1029.3 hPa | 0 mm | - | 10 W/m² | - |
| 1778036928 | 13.89° C | 85% | 1029.1 hPa | 0 mm | - | 13 W/m² | - |
| 1778036626 | 13.89° C | 84% | 1029.1 hPa | 0 mm | - | 16 W/m² | - |
| 1778036322 | 14.44° C | 84% | 1029.3 hPa | 0 mm | - | 20 W/m² | - |
| 1778036018 | 14.44° C | 83% | 1029.1 hPa | 0 mm | - | 24 W/m² | - |
| 1778035716 | 15° C | 81% | 1029.2 hPa | 0 mm | - | 29 W/m² | - |
| 1778035413 | 15° C | 80% | 1029.2 hPa | 0 mm | - | 33 W/m² | - |
| 1778035109 | 15.56° C | 79% | 1029.1 hPa | 0 mm | - | 36 W/m² | - |
| 1778034806 | 15.56° C | 77% | 1029.1 hPa | 0 mm | - | 39 W/m² | - |
| 1778034502 | 16.11° C | 76% | 1029.3 hPa | 0 mm | - | 43 W/m² | - |
| 1778034200 | 16.11° C | 74% | 1029.1 hPa | 0 mm | - | 48 W/m² | - |
| 1778033898 | 16.67° C | 73% | 1029.1 hPa | 0 mm | - | 49 W/m² | - |
| 1778033595 | 16.67° C | 71% | 1028.9 hPa | 0 mm | - | 51 W/m² | - |
| 1778033291 | 16.67° C | 72% | 1029.1 hPa | 0 mm | - | 54 W/m² | - |
| 1778032989 | 16.67° C | 70% | 1028.9 hPa | 0 mm | - | 56 W/m² | - |
| 1778032687 | 17.22° C | 71% | 1029.2 hPa | 0 mm | - | 60 W/m² | - |
| 1778032384 | 17.78° C | 67% | 1029.1 hPa | 0 mm | - | 62 W/m² | - |
| 1778032081 | 18.89° C | 64% | 1028.9 hPa | 0 mm | - | 64 W/m² | - |
| 1778031778 | 18.89° C | 64% | 1029.1 hPa | 0 mm | - | 143 W/m² | - |
* Rain latest hour (hover to see other rain measurements)
** Current wind speed in m/s (hover to see current wind gust speed)